<?xml version="1.0" encoding="utf-8"?>
<gpx xmlns:xsi="http://www.w3.org/2001/XMLSchema-instance" xmlns:xsd="http://www.w3.org/2001/XMLSchema" version="1.1" creator="Shapelink.com" xmlns="http://www.topografix.com/GPX/1/1" xmlns:gpxtpx="http://www.garmin.com/xmlschemas/TrackPointExtension/v1">
  <metadata>
    <name>Löpning 8.26 km, 2013-04-04</name>
    <desc></desc>
    <author><name>Kim Kronberg</name></author> 
    <time>1970-01-01T01:00:00Z</time>
  </metadata>
  <trk>
    <name>Löpning 8.26 km, 2013-04-04</name>
    <trkseg>
      <trkpt lat="60.456211" lon="22.282709">
        <ele>30</ele>
        <time>1970-01-01T01:00:00Z</time>
      </trkpt>
      <trkpt lat="60.456119" lon="22.282638">
        <ele>30</ele>
        <time>1970-01-01T01:00:00Z</time>
      </trkpt>
      <trkpt lat="60.456089" lon="22.2826">
        <ele>30</ele>
        <time>1970-01-01T01:00:00Z</time>
      </trkpt>
      <trkpt lat="60.456016" lon="22.282524">
        <ele>30</ele>
        <time>1970-01-01T01:00:00Z</time>
      </trkpt>
      <trkpt lat="60.45586" lon="22.282341">
        <ele>30</ele>
        <time>1970-01-01T01:00:00Z</time>
      </trkpt>
      <trkpt lat="60.455802" lon="22.282238">
        <ele>30</ele>
        <time>1970-01-01T01:00:00Z</time>
      </trkpt>
      <trkpt lat="60.455757" lon="22.282093">
        <ele>30</ele>
        <time>1970-01-01T01:00:00Z</time>
      </trkpt>
      <trkpt lat="60.455764" lon="22.281652">
        <ele>30</ele>
        <time>1970-01-01T01:00:00Z</time>
      </trkpt>
      <trkpt lat="60.455837" lon="22.281509">
        <ele>30</ele>
        <time>1970-01-01T01:00:00Z</time>
      </trkpt>
      <trkpt lat="60.455959" lon="22.281209">
        <ele>30</ele>
        <time>1970-01-01T01:00:00Z</time>
      </trkpt>
      <trkpt lat="60.456134" lon="22.280872">
        <ele>30</ele>
        <time>1970-01-01T01:00:00Z</time>
      </trkpt>
      <trkpt lat="60.456233" lon="22.280725">
        <ele>30</ele>
        <time>1970-01-01T01:00:00Z</time>
      </trkpt>
      <trkpt lat="60.45623" lon="22.280668">
        <ele>30</ele>
        <time>1970-01-01T01:00:00Z</time>
      </trkpt>
      <trkpt lat="60.456138" lon="22.280471">
        <ele>30</ele>
        <time>1970-01-01T01:00:00Z</time>
      </trkpt>
      <trkpt lat="60.456043" lon="22.280427">
        <ele>30</ele>
        <time>1970-01-01T01:00:00Z</time>
      </trkpt>
      <trkpt lat="60.455703" lon="22.280261">
        <ele>30</ele>
        <time>1970-01-01T01:00:00Z</time>
      </trkpt>
      <trkpt lat="60.455539" lon="22.280195">
        <ele>30</ele>
        <time>1970-01-01T01:00:00Z</time>
      </trkpt>
      <trkpt lat="60.455402" lon="22.280061">
        <ele>30</ele>
        <time>1970-01-01T01:00:00Z</time>
      </trkpt>
      <trkpt lat="60.455272" lon="22.279987">
        <ele>30</ele>
        <time>1970-01-01T01:00:00Z</time>
      </trkpt>
      <trkpt lat="60.455047" lon="22.27985">
        <ele>30</ele>
        <time>1970-01-01T01:00:00Z</time>
      </trkpt>
      <trkpt lat="60.454914" lon="22.279737">
        <ele>30</ele>
        <time>1970-01-01T01:00:00Z</time>
      </trkpt>
      <trkpt lat="60.454757" lon="22.279565">
        <ele>30</ele>
        <time>1970-01-01T01:00:00Z</time>
      </trkpt>
      <trkpt lat="60.454639" lon="22.279449">
        <ele>30</ele>
        <time>1970-01-01T01:00:00Z</time>
      </trkpt>
      <trkpt lat="60.454471" lon="22.279285">
        <ele>30</ele>
        <time>1970-01-01T01:00:00Z</time>
      </trkpt>
      <trkpt lat="60.454334" lon="22.279138">
        <ele>30</ele>
        <time>1970-01-01T01:00:00Z</time>
      </trkpt>
      <trkpt lat="60.454185" lon="22.278976">
        <ele>30</ele>
        <time>1970-01-01T01:00:00Z</time>
      </trkpt>
      <trkpt lat="60.454071" lon="22.27886">
        <ele>30</ele>
        <time>1970-01-01T01:00:00Z</time>
      </trkpt>
      <trkpt lat="60.453998" lon="22.278665">
        <ele>30</ele>
        <time>1970-01-01T01:00:00Z</time>
      </trkpt>
      <trkpt lat="60.453918" lon="22.278518">
        <ele>30</ele>
        <time>1970-01-01T01:00:00Z</time>
      </trkpt>
      <trkpt lat="60.4538" lon="22.278347">
        <ele>30</ele>
        <time>1970-01-01T01:00:00Z</time>
      </trkpt>
      <trkpt lat="60.453666" lon="22.278205">
        <ele>30</ele>
        <time>1970-01-01T01:00:00Z</time>
      </trkpt>
      <trkpt lat="60.453567" lon="22.27802">
        <ele>30</ele>
        <time>1970-01-01T01:00:00Z</time>
      </trkpt>
      <trkpt lat="60.453521" lon="22.27798">
        <ele>30</ele>
        <time>1970-01-01T01:00:00Z</time>
      </trkpt>
      <trkpt lat="60.453357" lon="22.277944">
        <ele>30</ele>
        <time>1970-01-01T01:00:00Z</time>
      </trkpt>
      <trkpt lat="60.453178" lon="22.27786">
        <ele>30</ele>
        <time>1970-01-01T01:00:00Z</time>
      </trkpt>
      <trkpt lat="60.453018" lon="22.277786">
        <ele>30</ele>
        <time>1970-01-01T01:00:00Z</time>
      </trkpt>
      <trkpt lat="60.452827" lon="22.277612">
        <ele>30</ele>
        <time>1970-01-01T01:00:00Z</time>
      </trkpt>
      <trkpt lat="60.45269" lon="22.277488">
        <ele>30</ele>
        <time>1970-01-01T01:00:00Z</time>
      </trkpt>
      <trkpt lat="60.45261" lon="22.277328">
        <ele>30</ele>
        <time>1970-01-01T01:00:00Z</time>
      </trkpt>
      <trkpt lat="60.452541" lon="22.277109">
        <ele>30</ele>
        <time>1970-01-01T01:00:00Z</time>
      </trkpt>
      <trkpt lat="60.452449" lon="22.276977">
        <ele>30</ele>
        <time>1970-01-01T01:00:00Z</time>
      </trkpt>
      <trkpt lat="60.452285" lon="22.276676">
        <ele>29.9339</ele>
        <time>1970-01-01T01:00:00Z</time>
      </trkpt>
      <trkpt lat="60.452236" lon="22.276544">
        <ele>29.8017</ele>
        <time>1970-01-01T01:00:00Z</time>
      </trkpt>
      <trkpt lat="60.452095" lon="22.276292">
        <ele>29.6033</ele>
        <time>1970-01-01T01:00:00Z</time>
      </trkpt>
      <trkpt lat="60.451923" lon="22.275995">
        <ele>29.3388</ele>
        <time>1970-01-01T01:00:00Z</time>
      </trkpt>
      <trkpt lat="60.451847" lon="22.275798">
        <ele>29.0083</ele>
        <time>1970-01-01T01:00:00Z</time>
      </trkpt>
      <trkpt lat="60.451824" lon="22.275695">
        <ele>28.6116</ele>
        <time>1970-01-01T01:00:00Z</time>
      </trkpt>
      <trkpt lat="60.451805" lon="22.275667">
        <ele>28.1488</ele>
        <time>1970-01-01T01:00:00Z</time>
      </trkpt>
      <trkpt lat="60.451728" lon="22.275506">
        <ele>27.0248</ele>
        <time>1970-01-01T01:00:00Z</time>
      </trkpt>
      <trkpt lat="60.451633" lon="22.275205">
        <ele>26.3636</ele>
        <time>1970-01-01T01:00:00Z</time>
      </trkpt>
      <trkpt lat="60.45153" lon="22.274913">
        <ele>25.6364</ele>
        <time>1970-01-01T01:00:00Z</time>
      </trkpt>
      <trkpt lat="60.451431" lon="22.274747">
        <ele>24.9752</ele>
        <time>1970-01-01T01:00:00Z</time>
      </trkpt>
      <trkpt lat="60.451305" lon="22.27465">
        <ele>24.4298</ele>
        <time>1970-01-01T01:00:00Z</time>
      </trkpt>
      <trkpt lat="60.451168" lon="22.274545">
        <ele>24</ele>
        <time>1970-01-01T01:00:00Z</time>
      </trkpt>
      <trkpt lat="60.450969" lon="22.274429">
        <ele>23.686</ele>
        <time>1970-01-01T01:00:00Z</time>
      </trkpt>
      <trkpt lat="60.450809" lon="22.274246">
        <ele>23.4876</ele>
        <time>1970-01-01T01:00:00Z</time>
      </trkpt>
      <trkpt lat="60.450721" lon="22.274017">
        <ele>23.405</ele>
        <time>1970-01-01T01:00:00Z</time>
      </trkpt>
      <trkpt lat="60.450584" lon="22.273927">
        <ele>23.438</ele>
        <time>1970-01-01T01:00:00Z</time>
      </trkpt>
      <trkpt lat="60.450466" lon="22.273851">
        <ele>23.5868</ele>
        <time>1970-01-01T01:00:00Z</time>
      </trkpt>
      <trkpt lat="60.450351" lon="22.273784">
        <ele>23.8512</ele>
        <time>1970-01-01T01:00:00Z</time>
      </trkpt>
      <trkpt lat="60.450214" lon="22.273654">
        <ele>24.2314</ele>
        <time>1970-01-01T01:00:00Z</time>
      </trkpt>
      <trkpt lat="60.450084" lon="22.273532">
        <ele>24.7273</ele>
        <time>1970-01-01T01:00:00Z</time>
      </trkpt>
      <trkpt lat="60.449901" lon="22.273416">
        <ele>25.2727</ele>
        <time>1970-01-01T01:00:00Z</time>
      </trkpt>
      <trkpt lat="60.449768" lon="22.273271">
        <ele>25.7686</ele>
        <time>1970-01-01T01:00:00Z</time>
      </trkpt>
      <trkpt lat="60.449649" lon="22.273157">
        <ele>26.2149</ele>
        <time>1970-01-01T01:00:00Z</time>
      </trkpt>
      <trkpt lat="60.449462" lon="22.272991">
        <ele>26.6116</ele>
        <time>1970-01-01T01:00:00Z</time>
      </trkpt>
      <trkpt lat="60.44931" lon="22.272832">
        <ele>26.9587</ele>
        <time>1970-01-01T01:00:00Z</time>
      </trkpt>
      <trkpt lat="60.449142" lon="22.272686">
        <ele>27.2562</ele>
        <time>1970-01-01T01:00:00Z</time>
      </trkpt>
      <trkpt lat="60.449058" lon="22.272495">
        <ele>27.5041</ele>
        <time>1970-01-01T01:00:00Z</time>
      </trkpt>
      <trkpt lat="60.448959" lon="22.272283">
        <ele>27.7025</ele>
        <time>1970-01-01T01:00:00Z</time>
      </trkpt>
      <trkpt lat="60.448833" lon="22.271932">
        <ele>27.8512</ele>
        <time>1970-01-01T01:00:00Z</time>
      </trkpt>
      <trkpt lat="60.448703" lon="22.271596">
        <ele>27.9504</ele>
        <time>1970-01-01T01:00:00Z</time>
      </trkpt>
      <trkpt lat="60.448604" lon="22.27136">
        <ele>28</ele>
        <time>1970-01-01T01:00:00Z</time>
      </trkpt>
      <trkpt lat="60.44849" lon="22.271171">
        <ele>28</ele>
        <time>1970-01-01T01:00:00Z</time>
      </trkpt>
      <trkpt lat="60.448421" lon="22.270931">
        <ele>28</ele>
        <time>1970-01-01T01:00:00Z</time>
      </trkpt>
      <trkpt lat="60.448295" lon="22.270658">
        <ele>28</ele>
        <time>1970-01-01T01:00:00Z</time>
      </trkpt>
      <trkpt lat="60.448123" lon="22.270446">
        <ele>28</ele>
        <time>1970-01-01T01:00:00Z</time>
      </trkpt>
      <trkpt lat="60.448207" lon="22.270366">
        <ele>28</ele>
        <time>1970-01-01T01:00:00Z</time>
      </trkpt>
      <trkpt lat="60.448318" lon="22.270046">
        <ele>28</ele>
        <time>1970-01-01T01:00:00Z</time>
      </trkpt>
      <trkpt lat="60.448478" lon="22.269863">
        <ele>28</ele>
        <time>1970-01-01T01:00:00Z</time>
      </trkpt>
      <trkpt lat="60.448558" lon="22.269666">
        <ele>28</ele>
        <time>1970-01-01T01:00:00Z</time>
      </trkpt>
      <trkpt lat="60.448699" lon="22.269466">
        <ele>28</ele>
        <time>1970-01-01T01:00:00Z</time>
      </trkpt>
      <trkpt lat="60.448795" lon="22.269376">
        <ele>28.0579</ele>
        <time>1970-01-01T01:00:00Z</time>
      </trkpt>
      <trkpt lat="60.448822" lon="22.269149">
        <ele>28.1736</ele>
        <time>1970-01-01T01:00:00Z</time>
      </trkpt>
      <trkpt lat="60.448738" lon="22.268938">
        <ele>28.3471</ele>
        <time>1970-01-01T01:00:00Z</time>
      </trkpt>
      <trkpt lat="60.448638" lon="22.268585">
        <ele>28.5785</ele>
        <time>1970-01-01T01:00:00Z</time>
      </trkpt>
      <trkpt lat="60.44849" lon="22.26815">
        <ele>28.8678</ele>
        <time>1970-01-01T01:00:00Z</time>
      </trkpt>
      <trkpt lat="60.448356" lon="22.267871">
        <ele>29.2149</ele>
        <time>1970-01-01T01:00:00Z</time>
      </trkpt>
      <trkpt lat="60.448261" lon="22.267644">
        <ele>29.6198</ele>
        <time>1970-01-01T01:00:00Z</time>
      </trkpt>
      <trkpt lat="60.448204" lon="22.267412">
        <ele>30.0826</ele>
        <time>1970-01-01T01:00:00Z</time>
      </trkpt>
      <trkpt lat="60.448131" lon="22.267187">
        <ele>30.6033</ele>
        <time>1970-01-01T01:00:00Z</time>
      </trkpt>
      <trkpt lat="60.448024" lon="22.266891">
        <ele>31.1818</ele>
        <time>1970-01-01T01:00:00Z</time>
      </trkpt>
      <trkpt lat="60.447994" lon="22.266614">
        <ele>31.8182</ele>
        <time>1970-01-01T01:00:00Z</time>
      </trkpt>
      <trkpt lat="60.447933" lon="22.26626">
        <ele>32.3967</ele>
        <time>1970-01-01T01:00:00Z</time>
      </trkpt>
      <trkpt lat="60.447837" lon="22.265892">
        <ele>32.9174</ele>
        <time>1970-01-01T01:00:00Z</time>
      </trkpt>
      <trkpt lat="60.447792" lon="22.265645">
        <ele>33.3802</ele>
        <time>1970-01-01T01:00:00Z</time>
      </trkpt>
      <trkpt lat="60.447704" lon="22.265424">
        <ele>33.7851</ele>
        <time>1970-01-01T01:00:00Z</time>
      </trkpt>
      <trkpt lat="60.44762" lon="22.265214">
        <ele>34.1322</ele>
        <time>1970-01-01T01:00:00Z</time>
      </trkpt>
      <trkpt lat="60.447517" lon="22.264945">
        <ele>34.4215</ele>
        <time>1970-01-01T01:00:00Z</time>
      </trkpt>
      <trkpt lat="60.447429" lon="22.264722">
        <ele>34.6529</ele>
        <time>1970-01-01T01:00:00Z</time>
      </trkpt>
      <trkpt lat="60.447338" lon="22.264505">
        <ele>34.8264</ele>
        <time>1970-01-01T01:00:00Z</time>
      </trkpt>
      <trkpt lat="60.447265" lon="22.264259">
        <ele>34.9422</ele>
        <time>1970-01-01T01:00:00Z</time>
      </trkpt>
      <trkpt lat="60.447185" lon="22.263999">
        <ele>35</ele>
        <time>1970-01-01T01:00:00Z</time>
      </trkpt>
      <trkpt lat="60.447124" lon="22.263717">
        <ele>35</ele>
        <time>1970-01-01T01:00:00Z</time>
      </trkpt>
      <trkpt lat="60.447063" lon="22.263492">
        <ele>35</ele>
        <time>1970-01-01T01:00:00Z</time>
      </trkpt>
      <trkpt lat="60.446994" lon="22.263267">
        <ele>35</ele>
        <time>1970-01-01T01:00:00Z</time>
      </trkpt>
      <trkpt lat="60.44691" lon="22.262998">
        <ele>35</ele>
        <time>1970-01-01T01:00:00Z</time>
      </trkpt>
      <trkpt lat="60.446865" lon="22.262733">
        <ele>35</ele>
        <time>1970-01-01T01:00:00Z</time>
      </trkpt>
      <trkpt lat="60.446811" lon="22.262474">
        <ele>35</ele>
        <time>1970-01-01T01:00:00Z</time>
      </trkpt>
      <trkpt lat="60.446746" lon="22.262241">
        <ele>35</ele>
        <time>1970-01-01T01:00:00Z</time>
      </trkpt>
      <trkpt lat="60.446723" lon="22.262065">
        <ele>35</ele>
        <time>1970-01-01T01:00:00Z</time>
      </trkpt>
      <trkpt lat="60.446651" lon="22.261844">
        <ele>35</ele>
        <time>1970-01-01T01:00:00Z</time>
      </trkpt>
      <trkpt lat="60.44654" lon="22.261373">
        <ele>35</ele>
        <time>1970-01-01T01:00:00Z</time>
      </trkpt>
      <trkpt lat="60.446517" lon="22.261032">
        <ele>35</ele>
        <time>1970-01-01T01:00:00Z</time>
      </trkpt>
      <trkpt lat="60.446517" lon="22.260963">
        <ele>35</ele>
        <time>1970-01-01T01:00:00Z</time>
      </trkpt>
      <trkpt lat="60.446411" lon="22.260759">
        <ele>34.9339</ele>
        <time>1970-01-01T01:00:00Z</time>
      </trkpt>
      <trkpt lat="60.446395" lon="22.260635">
        <ele>34.8017</ele>
        <time>1970-01-01T01:00:00Z</time>
      </trkpt>
      <trkpt lat="60.446323" lon="22.260288">
        <ele>34.6033</ele>
        <time>1970-01-01T01:00:00Z</time>
      </trkpt>
      <trkpt lat="60.44614" lon="22.259946">
        <ele>34.3388</ele>
        <time>1970-01-01T01:00:00Z</time>
      </trkpt>
      <trkpt lat="60.446025" lon="22.259748">
        <ele>34.0083</ele>
        <time>1970-01-01T01:00:00Z</time>
      </trkpt>
      <trkpt lat="60.445949" lon="22.259519">
        <ele>33.6116</ele>
        <time>1970-01-01T01:00:00Z</time>
      </trkpt>
      <trkpt lat="60.44585" lon="22.25921">
        <ele>33.1488</ele>
        <time>1970-01-01T01:00:00Z</time>
      </trkpt>
      <trkpt lat="60.445827" lon="22.258989">
        <ele>32.6198</ele>
        <time>1970-01-01T01:00:00Z</time>
      </trkpt>
      <trkpt lat="60.445743" lon="22.258752">
        <ele>32.0248</ele>
        <time>1970-01-01T01:00:00Z</time>
      </trkpt>
      <trkpt lat="60.445671" lon="22.258441">
        <ele>31.3636</ele>
        <time>1970-01-01T01:00:00Z</time>
      </trkpt>
      <trkpt lat="60.445663" lon="22.258375">
        <ele>30.6364</ele>
        <time>1970-01-01T01:00:00Z</time>
      </trkpt>
      <trkpt lat="60.44561" lon="22.258094">
        <ele>29.9752</ele>
        <time>1970-01-01T01:00:00Z</time>
      </trkpt>
      <trkpt lat="60.445533" lon="22.257783">
        <ele>29.3802</ele>
        <time>1970-01-01T01:00:00Z</time>
      </trkpt>
      <trkpt lat="60.445484" lon="22.257596">
        <ele>28.8512</ele>
        <time>1970-01-01T01:00:00Z</time>
      </trkpt>
      <trkpt lat="60.445587" lon="22.257196">
        <ele>28.3884</ele>
        <time>1970-01-01T01:00:00Z</time>
      </trkpt>
      <trkpt lat="60.445644" lon="22.257152">
        <ele>27.9917</ele>
        <time>1970-01-01T01:00:00Z</time>
      </trkpt>
      <trkpt lat="60.445926" lon="22.256893">
        <ele>27.6612</ele>
        <time>1970-01-01T01:00:00Z</time>
      </trkpt>
      <trkpt lat="60.446136" lon="22.256671">
        <ele>27.3967</ele>
        <time>1970-01-01T01:00:00Z</time>
      </trkpt>
      <trkpt lat="60.446334" lon="22.256492">
        <ele>27.0661</ele>
        <time>1970-01-01T01:00:00Z</time>
      </trkpt>
      <trkpt lat="60.446456" lon="22.25633">
        <ele>27</ele>
        <time>1970-01-01T01:00:00Z</time>
      </trkpt>
      <trkpt lat="60.446601" lon="22.256114">
        <ele>27</ele>
        <time>1970-01-01T01:00:00Z</time>
      </trkpt>
      <trkpt lat="60.446746" lon="22.255897">
        <ele>27</ele>
        <time>1970-01-01T01:00:00Z</time>
      </trkpt>
      <trkpt lat="60.446857" lon="22.255727">
        <ele>27</ele>
        <time>1970-01-01T01:00:00Z</time>
      </trkpt>
      <trkpt lat="60.44691" lon="22.255676">
        <ele>27</ele>
        <time>1970-01-01T01:00:00Z</time>
      </trkpt>
      <trkpt lat="60.446819" lon="22.255784">
        <ele>27</ele>
        <time>1970-01-01T01:00:00Z</time>
      </trkpt>
      <trkpt lat="60.446826" lon="22.255762">
        <ele>27</ele>
        <time>1970-01-01T01:00:00Z</time>
      </trkpt>
      <trkpt lat="60.446987" lon="22.255531">
        <ele>27</ele>
        <time>1970-01-01T01:00:00Z</time>
      </trkpt>
      <trkpt lat="60.447109" lon="22.255359">
        <ele>27</ele>
        <time>1970-01-01T01:00:00Z</time>
      </trkpt>
      <trkpt lat="60.447246" lon="22.255105">
        <ele>27</ele>
        <time>1970-01-01T01:00:00Z</time>
      </trkpt>
      <trkpt lat="60.447414" lon="22.25485">
        <ele>27</ele>
        <time>1970-01-01T01:00:00Z</time>
      </trkpt>
      <trkpt lat="60.447593" lon="22.254636">
        <ele>27</ele>
        <time>1970-01-01T01:00:00Z</time>
      </trkpt>
      <trkpt lat="60.447708" lon="22.254545">
        <ele>27</ele>
        <time>1970-01-01T01:00:00Z</time>
      </trkpt>
      <trkpt lat="60.447872" lon="22.254369">
        <ele>27</ele>
        <time>1970-01-01T01:00:00Z</time>
      </trkpt>
      <trkpt lat="60.448051" lon="22.254196">
        <ele>27</ele>
        <time>1970-01-01T01:00:00Z</time>
      </trkpt>
      <trkpt lat="60.448215" lon="22.25402">
        <ele>27</ele>
        <time>1970-01-01T01:00:00Z</time>
      </trkpt>
      <trkpt lat="60.44841" lon="22.253759">
        <ele>27</ele>
        <time>1970-01-01T01:00:00Z</time>
      </trkpt>
      <trkpt lat="60.448509" lon="22.25353">
        <ele>27</ele>
        <time>1970-01-01T01:00:00Z</time>
      </trkpt>
      <trkpt lat="60.448638" lon="22.253311">
        <ele>27</ele>
        <time>1970-01-01T01:00:00Z</time>
      </trkpt>
      <trkpt lat="60.448825" lon="22.253082">
        <ele>27</ele>
        <time>1970-01-01T01:00:00Z</time>
      </trkpt>
      <trkpt lat="60.448966" lon="22.252876">
        <ele>27</ele>
        <time>1970-01-01T01:00:00Z</time>
      </trkpt>
      <trkpt lat="60.449085" lon="22.252708">
        <ele>27</ele>
        <time>1970-01-01T01:00:00Z</time>
      </trkpt>
      <trkpt lat="60.449245" lon="22.252559">
        <ele>27</ele>
        <time>1970-01-01T01:00:00Z</time>
      </trkpt>
      <trkpt lat="60.449432" lon="22.252241">
        <ele>27.0331</ele>
        <time>1970-01-01T01:00:00Z</time>
      </trkpt>
      <trkpt lat="60.449459" lon="22.25217">
        <ele>27.0992</ele>
        <time>1970-01-01T01:00:00Z</time>
      </trkpt>
      <trkpt lat="60.449314" lon="22.251972">
        <ele>27.1983</ele>
        <time>1970-01-01T01:00:00Z</time>
      </trkpt>
      <trkpt lat="60.449337" lon="22.251932">
        <ele>27.3306</ele>
        <time>1970-01-01T01:00:00Z</time>
      </trkpt>
      <trkpt lat="60.44952" lon="22.251867">
        <ele>27.6942</ele>
        <time>1970-01-01T01:00:00Z</time>
      </trkpt>
      <trkpt lat="60.449642" lon="22.251739">
        <ele>27.8678</ele>
        <time>1970-01-01T01:00:00Z</time>
      </trkpt>
      <trkpt lat="60.449825" lon="22.251514">
        <ele>28.0165</ele>
        <time>1970-01-01T01:00:00Z</time>
      </trkpt>
      <trkpt lat="60.449886" lon="22.251403">
        <ele>28.1405</ele>
        <time>1970-01-01T01:00:00Z</time>
      </trkpt>
      <trkpt lat="60.449939" lon="22.251308">
        <ele>28.2397</ele>
        <time>1970-01-01T01:00:00Z</time>
      </trkpt>
      <trkpt lat="60.450096" lon="22.25122">
        <ele>28.314</ele>
        <time>1970-01-01T01:00:00Z</time>
      </trkpt>
      <trkpt lat="60.450187" lon="22.251089">
        <ele>28.2975</ele>
        <time>1970-01-01T01:00:00Z</time>
      </trkpt>
      <trkpt lat="60.450378" lon="22.25077">
        <ele>28.1901</ele>
        <time>1970-01-01T01:00:00Z</time>
      </trkpt>
      <trkpt lat="60.450504" lon="22.250522">
        <ele>27.9917</ele>
        <time>1970-01-01T01:00:00Z</time>
      </trkpt>
      <trkpt lat="60.45066" lon="22.250202">
        <ele>27.7025</ele>
        <time>1970-01-01T01:00:00Z</time>
      </trkpt>
      <trkpt lat="60.450805" lon="22.25002">
        <ele>26.8512</ele>
        <time>1970-01-01T01:00:00Z</time>
      </trkpt>
      <trkpt lat="60.450992" lon="22.249849">
        <ele>26.405</ele>
        <time>1970-01-01T01:00:00Z</time>
      </trkpt>
      <trkpt lat="60.451141" lon="22.249715">
        <ele>25.9835</ele>
        <time>1970-01-01T01:00:00Z</time>
      </trkpt>
      <trkpt lat="60.451305" lon="22.249454">
        <ele>25.5868</ele>
        <time>1970-01-01T01:00:00Z</time>
      </trkpt>
      <trkpt lat="60.451457" lon="22.249223">
        <ele>25.2149</ele>
        <time>1970-01-01T01:00:00Z</time>
      </trkpt>
      <trkpt lat="60.451637" lon="22.248971">
        <ele>24.8678</ele>
        <time>1970-01-01T01:00:00Z</time>
      </trkpt>
      <trkpt lat="60.45174" lon="22.248838">
        <ele>24.5785</ele>
        <time>1970-01-01T01:00:00Z</time>
      </trkpt>
      <trkpt lat="60.451824" lon="22.248765">
        <ele>24.3471</ele>
        <time>1970-01-01T01:00:00Z</time>
      </trkpt>
      <trkpt lat="60.451721" lon="22.248811">
        <ele>24.1736</ele>
        <time>1970-01-01T01:00:00Z</time>
      </trkpt>
      <trkpt lat="60.451873" lon="22.248653">
        <ele>24</ele>
        <time>1970-01-01T01:00:00Z</time>
      </trkpt>
      <trkpt lat="60.452014" lon="22.248399">
        <ele>24</ele>
        <time>1970-01-01T01:00:00Z</time>
      </trkpt>
      <trkpt lat="60.452159" lon="22.248205">
        <ele>24</ele>
        <time>1970-01-01T01:00:00Z</time>
      </trkpt>
      <trkpt lat="60.452304" lon="22.247985">
        <ele>24</ele>
        <time>1970-01-01T01:00:00Z</time>
      </trkpt>
      <trkpt lat="60.452381" lon="22.247898">
        <ele>24</ele>
        <time>1970-01-01T01:00:00Z</time>
      </trkpt>
      <trkpt lat="60.452529" lon="22.247657">
        <ele>24</ele>
        <time>1970-01-01T01:00:00Z</time>
      </trkpt>
      <trkpt lat="60.452678" lon="22.247535">
        <ele>24</ele>
        <time>1970-01-01T01:00:00Z</time>
      </trkpt>
      <trkpt lat="60.452877" lon="22.247222">
        <ele>24</ele>
        <time>1970-01-01T01:00:00Z</time>
      </trkpt>
      <trkpt lat="60.453002" lon="22.247076">
        <ele>24</ele>
        <time>1970-01-01T01:00:00Z</time>
      </trkpt>
      <trkpt lat="60.453159" lon="22.246835">
        <ele>24</ele>
        <time>1970-01-01T01:00:00Z</time>
      </trkpt>
      <trkpt lat="60.4533" lon="22.246679">
        <ele>24</ele>
        <time>1970-01-01T01:00:00Z</time>
      </trkpt>
      <trkpt lat="60.453449" lon="22.246543">
        <ele>24</ele>
        <time>1970-01-01T01:00:00Z</time>
      </trkpt>
      <trkpt lat="60.453624" lon="22.246328">
        <ele>24</ele>
        <time>1970-01-01T01:00:00Z</time>
      </trkpt>
      <trkpt lat="60.453746" lon="22.246179">
        <ele>24</ele>
        <time>1970-01-01T01:00:00Z</time>
      </trkpt>
      <trkpt lat="60.453899" lon="22.24599">
        <ele>24</ele>
        <time>1970-01-01T01:00:00Z</time>
      </trkpt>
      <trkpt lat="60.454067" lon="22.245817">
        <ele>24</ele>
        <time>1970-01-01T01:00:00Z</time>
      </trkpt>
      <trkpt lat="60.454219" lon="22.245655">
        <ele>24</ele>
        <time>1970-01-01T01:00:00Z</time>
      </trkpt>
      <trkpt lat="60.454307" lon="22.245573">
        <ele>24</ele>
        <time>1970-01-01T01:00:00Z</time>
      </trkpt>
      <trkpt lat="60.454204" lon="22.245597">
        <ele>24</ele>
        <time>1970-01-01T01:00:00Z</time>
      </trkpt>
      <trkpt lat="60.45425" lon="22.245506">
        <ele>24</ele>
        <time>1970-01-01T01:00:00Z</time>
      </trkpt>
      <trkpt lat="60.454387" lon="22.245216">
        <ele>24</ele>
        <time>1970-01-01T01:00:00Z</time>
      </trkpt>
      <trkpt lat="60.454483" lon="22.245029">
        <ele>24</ele>
        <time>1970-01-01T01:00:00Z</time>
      </trkpt>
      <trkpt lat="60.454601" lon="22.244756">
        <ele>24</ele>
        <time>1970-01-01T01:00:00Z</time>
      </trkpt>
      <trkpt lat="60.454715" lon="22.244512">
        <ele>24</ele>
        <time>1970-01-01T01:00:00Z</time>
      </trkpt>
      <trkpt lat="60.454845" lon="22.244049">
        <ele>24</ele>
        <time>1970-01-01T01:00:00Z</time>
      </trkpt>
      <trkpt lat="60.454944" lon="22.243627">
        <ele>24</ele>
        <time>1970-01-01T01:00:00Z</time>
      </trkpt>
      <trkpt lat="60.455024" lon="22.243284">
        <ele>24</ele>
        <time>1970-01-01T01:00:00Z</time>
      </trkpt>
      <trkpt lat="60.455101" lon="22.242931">
        <ele>24</ele>
        <time>1970-01-01T01:00:00Z</time>
      </trkpt>
      <trkpt lat="60.455173" lon="22.242565">
        <ele>24</ele>
        <time>1970-01-01T01:00:00Z</time>
      </trkpt>
      <trkpt lat="60.455287" lon="22.242601">
        <ele>24</ele>
        <time>1970-01-01T01:00:00Z</time>
      </trkpt>
      <trkpt lat="60.45541" lon="22.242956">
        <ele>24</ele>
        <time>1970-01-01T01:00:00Z</time>
      </trkpt>
      <trkpt lat="60.455474" lon="22.243162">
        <ele>24</ele>
        <time>1970-01-01T01:00:00Z</time>
      </trkpt>
      <trkpt lat="60.455566" lon="22.243434">
        <ele>24</ele>
        <time>1970-01-01T01:00:00Z</time>
      </trkpt>
      <trkpt lat="60.4556" lon="22.243539">
        <ele>24</ele>
        <time>1970-01-01T01:00:00Z</time>
      </trkpt>
      <trkpt lat="60.455715" lon="22.243761">
        <ele>24</ele>
        <time>1970-01-01T01:00:00Z</time>
      </trkpt>
      <trkpt lat="60.455799" lon="22.243961">
        <ele>24</ele>
        <time>1970-01-01T01:00:00Z</time>
      </trkpt>
      <trkpt lat="60.455928" lon="22.244207">
        <ele>24</ele>
        <time>1970-01-01T01:00:00Z</time>
      </trkpt>
      <trkpt lat="60.456047" lon="22.2444">
        <ele>24</ele>
        <time>1970-01-01T01:00:00Z</time>
      </trkpt>
      <trkpt lat="60.456123" lon="22.244562">
        <ele>24</ele>
        <time>1970-01-01T01:00:00Z</time>
      </trkpt>
      <trkpt lat="60.456272" lon="22.244646">
        <ele>24</ele>
        <time>1970-01-01T01:00:00Z</time>
      </trkpt>
      <trkpt lat="60.456382" lon="22.244783">
        <ele>24</ele>
        <time>1970-01-01T01:00:00Z</time>
      </trkpt>
      <trkpt lat="60.456493" lon="22.244953">
        <ele>24</ele>
        <time>1970-01-01T01:00:00Z</time>
      </trkpt>
      <trkpt lat="60.456623" lon="22.244998">
        <ele>24</ele>
        <time>1970-01-01T01:00:00Z</time>
      </trkpt>
      <trkpt lat="60.456722" lon="22.245038">
        <ele>24</ele>
        <time>1970-01-01T01:00:00Z</time>
      </trkpt>
      <trkpt lat="60.456935" lon="22.245271">
        <ele>24</ele>
        <time>1970-01-01T01:00:00Z</time>
      </trkpt>
      <trkpt lat="60.457057" lon="22.245399">
        <ele>24</ele>
        <time>1970-01-01T01:00:00Z</time>
      </trkpt>
      <trkpt lat="60.457202" lon="22.245548">
        <ele>24</ele>
        <time>1970-01-01T01:00:00Z</time>
      </trkpt>
      <trkpt lat="60.457374" lon="22.245712">
        <ele>24</ele>
        <time>1970-01-01T01:00:00Z</time>
      </trkpt>
      <trkpt lat="60.457508" lon="22.2458">
        <ele>24</ele>
        <time>1970-01-01T01:00:00Z</time>
      </trkpt>
      <trkpt lat="60.457653" lon="22.24587">
        <ele>24</ele>
        <time>1970-01-01T01:00:00Z</time>
      </trkpt>
      <trkpt lat="60.457786" lon="22.245946">
        <ele>24</ele>
        <time>1970-01-01T01:00:00Z</time>
      </trkpt>
      <trkpt lat="60.457969" lon="22.24607">
        <ele>24</ele>
        <time>1970-01-01T01:00:00Z</time>
      </trkpt>
      <trkpt lat="60.458145" lon="22.246191">
        <ele>24</ele>
        <time>1970-01-01T01:00:00Z</time>
      </trkpt>
      <trkpt lat="60.458343" lon="22.246324">
        <ele>24</ele>
        <time>1970-01-01T01:00:00Z</time>
      </trkpt>
      <trkpt lat="60.458511" lon="22.246438">
        <ele>24</ele>
        <time>1970-01-01T01:00:00Z</time>
      </trkpt>
      <trkpt lat="60.458663" lon="22.246547">
        <ele>24</ele>
        <time>1970-01-01T01:00:00Z</time>
      </trkpt>
      <trkpt lat="60.458889" lon="22.24666">
        <ele>24</ele>
        <time>1970-01-01T01:00:00Z</time>
      </trkpt>
      <trkpt lat="60.458999" lon="22.24673">
        <ele>24</ele>
        <time>1970-01-01T01:00:00Z</time>
      </trkpt>
      <trkpt lat="60.459182" lon="22.246812">
        <ele>24</ele>
        <time>1970-01-01T01:00:00Z</time>
      </trkpt>
      <trkpt lat="60.459365" lon="22.246879">
        <ele>24</ele>
        <time>1970-01-01T01:00:00Z</time>
      </trkpt>
      <trkpt lat="60.459583" lon="22.246936">
        <ele>24</ele>
        <time>1970-01-01T01:00:00Z</time>
      </trkpt>
      <trkpt lat="60.459724" lon="22.246938">
        <ele>24</ele>
        <time>1970-01-01T01:00:00Z</time>
      </trkpt>
      <trkpt lat="60.459934" lon="22.246936">
        <ele>24</ele>
        <time>1970-01-01T01:00:00Z</time>
      </trkpt>
      <trkpt lat="60.460136" lon="22.246881">
        <ele>24</ele>
        <time>1970-01-01T01:00:00Z</time>
      </trkpt>
      <trkpt lat="60.460308" lon="22.24677">
        <ele>24</ele>
        <time>1970-01-01T01:00:00Z</time>
      </trkpt>
      <trkpt lat="60.460426" lon="22.246639">
        <ele>24</ele>
        <time>1970-01-01T01:00:00Z</time>
      </trkpt>
      <trkpt lat="60.460582" lon="22.246398">
        <ele>24</ele>
        <time>1970-01-01T01:00:00Z</time>
      </trkpt>
      <trkpt lat="60.460727" lon="22.246185">
        <ele>24</ele>
        <time>1970-01-01T01:00:00Z</time>
      </trkpt>
      <trkpt lat="60.460853" lon="22.245901">
        <ele>24</ele>
        <time>1970-01-01T01:00:00Z</time>
      </trkpt>
      <trkpt lat="60.461021" lon="22.24563">
        <ele>24</ele>
        <time>1970-01-01T01:00:00Z</time>
      </trkpt>
      <trkpt lat="60.461166" lon="22.245399">
        <ele>24</ele>
        <time>1970-01-01T01:00:00Z</time>
      </trkpt>
      <trkpt lat="60.461345" lon="22.245151">
        <ele>24</ele>
        <time>1970-01-01T01:00:00Z</time>
      </trkpt>
      <trkpt lat="60.461509" lon="22.244935">
        <ele>24</ele>
        <time>1970-01-01T01:00:00Z</time>
      </trkpt>
      <trkpt lat="60.4617" lon="22.244718">
        <ele>24</ele>
        <time>1970-01-01T01:00:00Z</time>
      </trkpt>
      <trkpt lat="60.461898" lon="22.24443">
        <ele>24</ele>
        <time>1970-01-01T01:00:00Z</time>
      </trkpt>
      <trkpt lat="60.462059" lon="22.244142">
        <ele>24</ele>
        <time>1970-01-01T01:00:00Z</time>
      </trkpt>
      <trkpt lat="60.462219" lon="22.243894">
        <ele>24</ele>
        <time>1970-01-01T01:00:00Z</time>
      </trkpt>
      <trkpt lat="60.462333" lon="22.243745">
        <ele>24</ele>
        <time>1970-01-01T01:00:00Z</time>
      </trkpt>
      <trkpt lat="60.462482" lon="22.243566">
        <ele>23.876</ele>
        <time>1970-01-01T01:00:00Z</time>
      </trkpt>
      <trkpt lat="60.462627" lon="22.2434">
        <ele>23.6281</ele>
        <time>1970-01-01T01:00:00Z</time>
      </trkpt>
      <trkpt lat="60.462772" lon="22.243204">
        <ele>23.2562</ele>
        <time>1970-01-01T01:00:00Z</time>
      </trkpt>
      <trkpt lat="60.462917" lon="22.243015">
        <ele>22.7603</ele>
        <time>1970-01-01T01:00:00Z</time>
      </trkpt>
      <trkpt lat="60.46297" lon="22.242931">
        <ele>22.1405</ele>
        <time>1970-01-01T01:00:00Z</time>
      </trkpt>
      <trkpt lat="60.46313" lon="22.242721">
        <ele>21.3967</ele>
        <time>1970-01-01T01:00:00Z</time>
      </trkpt>
      <trkpt lat="60.463291" lon="22.242506">
        <ele>20.5289</ele>
        <time>1970-01-01T01:00:00Z</time>
      </trkpt>
      <trkpt lat="60.463485" lon="22.242271">
        <ele>19.5372</ele>
        <time>1970-01-01T01:00:00Z</time>
      </trkpt>
      <trkpt lat="60.463611" lon="22.242094">
        <ele>18.4215</ele>
        <time>1970-01-01T01:00:00Z</time>
      </trkpt>
      <trkpt lat="60.463756" lon="22.241861">
        <ele>17.1818</ele>
        <time>1970-01-01T01:00:00Z</time>
      </trkpt>
      <trkpt lat="60.463901" lon="22.241691">
        <ele>15.8182</ele>
        <time>1970-01-01T01:00:00Z</time>
      </trkpt>
      <trkpt lat="60.464073" lon="22.241449">
        <ele>14.5785</ele>
        <time>1970-01-01T01:00:00Z</time>
      </trkpt>
      <trkpt lat="60.464183" lon="22.241285">
        <ele>13.4628</ele>
        <time>1970-01-01T01:00:00Z</time>
      </trkpt>
      <trkpt lat="60.464321" lon="22.24109">
        <ele>12.4711</ele>
        <time>1970-01-01T01:00:00Z</time>
      </trkpt>
      <trkpt lat="60.464466" lon="22.24093">
        <ele>11.6033</ele>
        <time>1970-01-01T01:00:00Z</time>
      </trkpt>
      <trkpt lat="60.464576" lon="22.240703">
        <ele>10.8595</ele>
        <time>1970-01-01T01:00:00Z</time>
      </trkpt>
      <trkpt lat="60.464614" lon="22.240446">
        <ele>10.2397</ele>
        <time>1970-01-01T01:00:00Z</time>
      </trkpt>
      <trkpt lat="60.464614" lon="22.240219">
        <ele>9.7438</ele>
        <time>1970-01-01T01:00:00Z</time>
      </trkpt>
      <trkpt lat="60.464618" lon="22.239936">
        <ele>9.3719</ele>
        <time>1970-01-01T01:00:00Z</time>
      </trkpt>
      <trkpt lat="60.464614" lon="22.239603">
        <ele>9.12397</ele>
        <time>1970-01-01T01:00:00Z</time>
      </trkpt>
      <trkpt lat="60.464611" lon="22.239356">
        <ele>9</ele>
        <time>1970-01-01T01:00:00Z</time>
      </trkpt>
      <trkpt lat="60.464607" lon="22.239063">
        <ele>9</ele>
        <time>1970-01-01T01:00:00Z</time>
      </trkpt>
      <trkpt lat="60.464611" lon="22.238855">
        <ele>9</ele>
        <time>1970-01-01T01:00:00Z</time>
      </trkpt>
      <trkpt lat="60.464637" lon="22.238605">
        <ele>9</ele>
        <time>1970-01-01T01:00:00Z</time>
      </trkpt>
      <trkpt lat="60.464675" lon="22.238311">
        <ele>9</ele>
        <time>1970-01-01T01:00:00Z</time>
      </trkpt>
      <trkpt lat="60.464721" lon="22.237976">
        <ele>9</ele>
        <time>1970-01-01T01:00:00Z</time>
      </trkpt>
      <trkpt lat="60.464763" lon="22.237628">
        <ele>9</ele>
        <time>1970-01-01T01:00:00Z</time>
      </trkpt>
      <trkpt lat="60.464832" lon="22.237264">
        <ele>9</ele>
        <time>1970-01-01T01:00:00Z</time>
      </trkpt>
      <trkpt lat="60.464939" lon="22.236894">
        <ele>9</ele>
        <time>1970-01-01T01:00:00Z</time>
      </trkpt>
      <trkpt lat="60.46503" lon="22.236564">
        <ele>9</ele>
        <time>1970-01-01T01:00:00Z</time>
      </trkpt>
      <trkpt lat="60.465148" lon="22.236267">
        <ele>9</ele>
        <time>1970-01-01T01:00:00Z</time>
      </trkpt>
      <trkpt lat="60.46524" lon="22.23604">
        <ele>9.17355</ele>
        <time>1970-01-01T01:00:00Z</time>
      </trkpt>
      <trkpt lat="60.46537" lon="22.235734">
        <ele>9.52066</ele>
        <time>1970-01-01T01:00:00Z</time>
      </trkpt>
      <trkpt lat="60.465526" lon="22.235469">
        <ele>10.0413</ele>
        <time>1970-01-01T01:00:00Z</time>
      </trkpt>
      <trkpt lat="60.465679" lon="22.235244">
        <ele>10.7355</ele>
        <time>1970-01-01T01:00:00Z</time>
      </trkpt>
      <trkpt lat="60.465824" lon="22.235012">
        <ele>11.6033</ele>
        <time>1970-01-01T01:00:00Z</time>
      </trkpt>
      <trkpt lat="60.465969" lon="22.23484">
        <ele>12.6446</ele>
        <time>1970-01-01T01:00:00Z</time>
      </trkpt>
      <trkpt lat="60.466148" lon="22.234642">
        <ele>13.8595</ele>
        <time>1970-01-01T01:00:00Z</time>
      </trkpt>
      <trkpt lat="60.466358" lon="22.234449">
        <ele>15.2479</ele>
        <time>1970-01-01T01:00:00Z</time>
      </trkpt>
      <trkpt lat="60.466499" lon="22.234367">
        <ele>16.8099</ele>
        <time>1970-01-01T01:00:00Z</time>
      </trkpt>
      <trkpt lat="60.466678" lon="22.23431">
        <ele>18.5455</ele>
        <time>1970-01-01T01:00:00Z</time>
      </trkpt>
      <trkpt lat="60.466835" lon="22.234254">
        <ele>20.4545</ele>
        <time>1970-01-01T01:00:00Z</time>
      </trkpt>
      <trkpt lat="60.466999" lon="22.23421">
        <ele>22.1901</ele>
        <time>1970-01-01T01:00:00Z</time>
      </trkpt>
      <trkpt lat="60.467155" lon="22.234241">
        <ele>23.7521</ele>
        <time>1970-01-01T01:00:00Z</time>
      </trkpt>
      <trkpt lat="60.46733" lon="22.234273">
        <ele>25.1405</ele>
        <time>1970-01-01T01:00:00Z</time>
      </trkpt>
      <trkpt lat="60.467494" lon="22.234304">
        <ele>26.3554</ele>
        <time>1970-01-01T01:00:00Z</time>
      </trkpt>
      <trkpt lat="60.467735" lon="22.234294">
        <ele>27.3967</ele>
        <time>1970-01-01T01:00:00Z</time>
      </trkpt>
      <trkpt lat="60.46791" lon="22.234313">
        <ele>28.2645</ele>
        <time>1970-01-01T01:00:00Z</time>
      </trkpt>
      <trkpt lat="60.46804" lon="22.234298">
        <ele>28.9587</ele>
        <time>1970-01-01T01:00:00Z</time>
      </trkpt>
      <trkpt lat="60.468215" lon="22.234279">
        <ele>29.4793</ele>
        <time>1970-01-01T01:00:00Z</time>
      </trkpt>
      <trkpt lat="60.468387" lon="22.234315">
        <ele>29.8264</ele>
        <time>1970-01-01T01:00:00Z</time>
      </trkpt>
      <trkpt lat="60.468559" lon="22.234388">
        <ele>30</ele>
        <time>1970-01-01T01:00:00Z</time>
      </trkpt>
      <trkpt lat="60.468727" lon="22.234443">
        <ele>30</ele>
        <time>1970-01-01T01:00:00Z</time>
      </trkpt>
      <trkpt lat="60.468891" lon="22.234531">
        <ele>30</ele>
        <time>1970-01-01T01:00:00Z</time>
      </trkpt>
      <trkpt lat="60.469085" lon="22.234649">
        <ele>30</ele>
        <time>1970-01-01T01:00:00Z</time>
      </trkpt>
      <trkpt lat="60.469234" lon="22.234666">
        <ele>30</ele>
        <time>1970-01-01T01:00:00Z</time>
      </trkpt>
      <trkpt lat="60.469417" lon="22.234714">
        <ele>30</ele>
        <time>1970-01-01T01:00:00Z</time>
      </trkpt>
      <trkpt lat="60.469612" lon="22.234809">
        <ele>30</ele>
        <time>1970-01-01T01:00:00Z</time>
      </trkpt>
      <trkpt lat="60.469776" lon="22.234901">
        <ele>30</ele>
        <time>1970-01-01T01:00:00Z</time>
      </trkpt>
      <trkpt lat="60.469902" lon="22.234973">
        <ele>30</ele>
        <time>1970-01-01T01:00:00Z</time>
      </trkpt>
      <trkpt lat="60.46989" lon="22.235017">
        <ele>30</ele>
        <time>1970-01-01T01:00:00Z</time>
      </trkpt>
      <trkpt lat="60.469924" lon="22.235052">
        <ele>30</ele>
        <time>1970-01-01T01:00:00Z</time>
      </trkpt>
      <trkpt lat="60.470092" lon="22.235296">
        <ele>30</ele>
        <time>1970-01-01T01:00:00Z</time>
      </trkpt>
      <trkpt lat="60.470218" lon="22.235483">
        <ele>30</ele>
        <time>1970-01-01T01:00:00Z</time>
      </trkpt>
      <trkpt lat="60.470363" lon="22.235685">
        <ele>30</ele>
        <time>1970-01-01T01:00:00Z</time>
      </trkpt>
      <trkpt lat="60.470561" lon="22.235681">
        <ele>30</ele>
        <time>1970-01-01T01:00:00Z</time>
      </trkpt>
      <trkpt lat="60.470714" lon="22.235532">
        <ele>30</ele>
        <time>1970-01-01T01:00:00Z</time>
      </trkpt>
      <trkpt lat="60.470783" lon="22.235441">
        <ele>30</ele>
        <time>1970-01-01T01:00:00Z</time>
      </trkpt>
      <trkpt lat="60.470943" lon="22.23526">
        <ele>30</ele>
        <time>1970-01-01T01:00:00Z</time>
      </trkpt>
      <trkpt lat="60.470977" lon="22.235252">
        <ele>30</ele>
        <time>1970-01-01T01:00:00Z</time>
      </trkpt>
      <trkpt lat="60.471149" lon="22.235183">
        <ele>30</ele>
        <time>1970-01-01T01:00:00Z</time>
      </trkpt>
      <trkpt lat="60.47134" lon="22.23501">
        <ele>30</ele>
        <time>1970-01-01T01:00:00Z</time>
      </trkpt>
      <trkpt lat="60.471534" lon="22.234899">
        <ele>30</ele>
        <time>1970-01-01T01:00:00Z</time>
      </trkpt>
      <trkpt lat="60.471679" lon="22.234848">
        <ele>30</ele>
        <time>1970-01-01T01:00:00Z</time>
      </trkpt>
      <trkpt lat="60.471878" lon="22.234813">
        <ele>30</ele>
        <time>1970-01-01T01:00:00Z</time>
      </trkpt>
      <trkpt lat="60.472087" lon="22.23475">
        <ele>30</ele>
        <time>1970-01-01T01:00:00Z</time>
      </trkpt>
      <trkpt lat="60.472251" lon="22.234718">
        <ele>30</ele>
        <time>1970-01-01T01:00:00Z</time>
      </trkpt>
      <trkpt lat="60.472404" lon="22.234691">
        <ele>30</ele>
        <time>1970-01-01T01:00:00Z</time>
      </trkpt>
      <trkpt lat="60.472614" lon="22.234666">
        <ele>30</ele>
        <time>1970-01-01T01:00:00Z</time>
      </trkpt>
      <trkpt lat="60.472782" lon="22.234647">
        <ele>30</ele>
        <time>1970-01-01T01:00:00Z</time>
      </trkpt>
      <trkpt lat="60.472946" lon="22.234596">
        <ele>30</ele>
        <time>1970-01-01T01:00:00Z</time>
      </trkpt>
      <trkpt lat="60.473121" lon="22.234537">
        <ele>30</ele>
        <time>1970-01-01T01:00:00Z</time>
      </trkpt>
      <trkpt lat="60.473327" lon="22.234466">
        <ele>30</ele>
        <time>1970-01-01T01:00:00Z</time>
      </trkpt>
      <trkpt lat="60.473579" lon="22.234453">
        <ele>30</ele>
        <time>1970-01-01T01:00:00Z</time>
      </trkpt>
      <trkpt lat="60.473781" lon="22.234455">
        <ele>30</ele>
        <time>1970-01-01T01:00:00Z</time>
      </trkpt>
      <trkpt lat="60.473934" lon="22.234504">
        <ele>30</ele>
        <time>1970-01-01T01:00:00Z</time>
      </trkpt>
      <trkpt lat="60.474079" lon="22.234561">
        <ele>30</ele>
        <time>1970-01-01T01:00:00Z</time>
      </trkpt>
      <trkpt lat="60.474205" lon="22.234689">
        <ele>30</ele>
        <time>1970-01-01T01:00:00Z</time>
      </trkpt>
      <trkpt lat="60.474285" lon="22.234939">
        <ele>30</ele>
        <time>1970-01-01T01:00:00Z</time>
      </trkpt>
      <trkpt lat="60.474372" lon="22.235235">
        <ele>30</ele>
        <time>1970-01-01T01:00:00Z</time>
      </trkpt>
      <trkpt lat="60.474437" lon="22.235637">
        <ele>30.0909</ele>
        <time>1970-01-01T01:00:00Z</time>
      </trkpt>
      <trkpt lat="60.474494" lon="22.236072">
        <ele>30.2727</ele>
        <time>1970-01-01T01:00:00Z</time>
      </trkpt>
      <trkpt lat="60.474544" lon="22.236341">
        <ele>30.5455</ele>
        <time>1970-01-01T01:00:00Z</time>
      </trkpt>
      <trkpt lat="60.474597" lon="22.236717">
        <ele>30.9091</ele>
        <time>1970-01-01T01:00:00Z</time>
      </trkpt>
      <trkpt lat="60.474674" lon="22.237112">
        <ele>31.3636</ele>
        <time>1970-01-01T01:00:00Z</time>
      </trkpt>
      <trkpt lat="60.474723" lon="22.237428">
        <ele>31.9091</ele>
        <time>1970-01-01T01:00:00Z</time>
      </trkpt>
      <trkpt lat="60.474773" lon="22.237697">
        <ele>32.5455</ele>
        <time>1970-01-01T01:00:00Z</time>
      </trkpt>
      <trkpt lat="60.474838" lon="22.237907">
        <ele>33.2727</ele>
        <time>1970-01-01T01:00:00Z</time>
      </trkpt>
      <trkpt lat="60.474925" lon="22.238111">
        <ele>34.0909</ele>
        <time>1970-01-01T01:00:00Z</time>
      </trkpt>
      <trkpt lat="60.475048" lon="22.238447">
        <ele>35</ele>
        <time>1970-01-01T01:00:00Z</time>
      </trkpt>
      <trkpt lat="60.475173" lon="22.238803">
        <ele>36</ele>
        <time>1970-01-01T01:00:00Z</time>
      </trkpt>
      <trkpt lat="60.475242" lon="22.23899">
        <ele>36.9091</ele>
        <time>1970-01-01T01:00:00Z</time>
      </trkpt>
      <trkpt lat="60.475326" lon="22.239105">
        <ele>38.4545</ele>
        <time>1970-01-01T01:00:00Z</time>
      </trkpt>
      <trkpt lat="60.475467" lon="22.238986">
        <ele>39.0909</ele>
        <time>1970-01-01T01:00:00Z</time>
      </trkpt>
      <trkpt lat="60.475566" lon="22.239101">
        <ele>39.5785</ele>
        <time>1970-01-01T01:00:00Z</time>
      </trkpt>
      <trkpt lat="60.475708" lon="22.2395">
        <ele>39.9174</ele>
        <time>1970-01-01T01:00:00Z</time>
      </trkpt>
      <trkpt lat="60.475818" lon="22.239843">
        <ele>40.1074</ele>
        <time>1970-01-01T01:00:00Z</time>
      </trkpt>
      <trkpt lat="60.475933" lon="22.240222">
        <ele>40.1488</ele>
        <time>1970-01-01T01:00:00Z</time>
      </trkpt>
      <trkpt lat="60.476032" lon="22.240472">
        <ele>40.0413</ele>
        <time>1970-01-01T01:00:00Z</time>
      </trkpt>
      <trkpt lat="60.476108" lon="22.240682">
        <ele>39.7851</ele>
        <time>1970-01-01T01:00:00Z</time>
      </trkpt>
      <trkpt lat="60.476177" lon="22.24098">
        <ele>39.3802</ele>
        <time>1970-01-01T01:00:00Z</time>
      </trkpt>
      <trkpt lat="60.476245" lon="22.241165">
        <ele>38.9174</ele>
        <time>1970-01-01T01:00:00Z</time>
      </trkpt>
      <trkpt lat="60.476318" lon="22.241397">
        <ele>38.3967</ele>
        <time>1970-01-01T01:00:00Z</time>
      </trkpt>
      <trkpt lat="60.476428" lon="22.241703">
        <ele>37.8182</ele>
        <time>1970-01-01T01:00:00Z</time>
      </trkpt>
      <trkpt lat="60.476531" lon="22.242069">
        <ele>37.1818</ele>
        <time>1970-01-01T01:00:00Z</time>
      </trkpt>
      <trkpt lat="60.476596" lon="22.242313">
        <ele>36.6033</ele>
        <time>1970-01-01T01:00:00Z</time>
      </trkpt>
      <trkpt lat="60.476696" lon="22.242616">
        <ele>36.0826</ele>
        <time>1970-01-01T01:00:00Z</time>
      </trkpt>
      <trkpt lat="60.476814" lon="22.242973">
        <ele>35.6198</ele>
        <time>1970-01-01T01:00:00Z</time>
      </trkpt>
      <trkpt lat="60.476879" lon="22.243188">
        <ele>35.2149</ele>
        <time>1970-01-01T01:00:00Z</time>
      </trkpt>
      <trkpt lat="60.476951" lon="22.243408">
        <ele>34.8678</ele>
        <time>1970-01-01T01:00:00Z</time>
      </trkpt>
      <trkpt lat="60.477035" lon="22.243698">
        <ele>34.5785</ele>
        <time>1970-01-01T01:00:00Z</time>
      </trkpt>
      <trkpt lat="60.477062" lon="22.243951">
        <ele>34.3471</ele>
        <time>1970-01-01T01:00:00Z</time>
      </trkpt>
      <trkpt lat="60.477073" lon="22.24422">
        <ele>34.1736</ele>
        <time>1970-01-01T01:00:00Z</time>
      </trkpt>
      <trkpt lat="60.477085" lon="22.244552">
        <ele>34.0578</ele>
        <time>1970-01-01T01:00:00Z</time>
      </trkpt>
      <trkpt lat="60.4771" lon="22.244831">
        <ele>34</ele>
        <time>1970-01-01T01:00:00Z</time>
      </trkpt>
      <trkpt lat="60.477157" lon="22.245159">
        <ele>34</ele>
        <time>1970-01-01T01:00:00Z</time>
      </trkpt>
      <trkpt lat="60.477218" lon="22.245412">
        <ele>34</ele>
        <time>1970-01-01T01:00:00Z</time>
      </trkpt>
      <trkpt lat="60.477252" lon="22.245664">
        <ele>34</ele>
        <time>1970-01-01T01:00:00Z</time>
      </trkpt>
      <trkpt lat="60.477287" lon="22.245918">
        <ele>34</ele>
        <time>1970-01-01T01:00:00Z</time>
      </trkpt>
      <trkpt lat="60.477298" lon="22.246162">
        <ele>34</ele>
        <time>1970-01-01T01:00:00Z</time>
      </trkpt>
      <trkpt lat="60.477294" lon="22.246416">
        <ele>34</ele>
        <time>1970-01-01T01:00:00Z</time>
      </trkpt>
      <trkpt lat="60.477317" lon="22.246717">
        <ele>34</ele>
        <time>1970-01-01T01:00:00Z</time>
      </trkpt>
      <trkpt lat="60.477321" lon="22.246961">
        <ele>33.9256</ele>
        <time>1970-01-01T01:00:00Z</time>
      </trkpt>
      <trkpt lat="60.477325" lon="22.247238">
        <ele>33.7769</ele>
        <time>1970-01-01T01:00:00Z</time>
      </trkpt>
      <trkpt lat="60.47734" lon="22.24752">
        <ele>33.5537</ele>
        <time>1970-01-01T01:00:00Z</time>
      </trkpt>
      <trkpt lat="60.477336" lon="22.247829">
        <ele>33.2562</ele>
        <time>1970-01-01T01:00:00Z</time>
      </trkpt>
      <trkpt lat="60.47734" lon="22.248159">
        <ele>32.8843</ele>
        <time>1970-01-01T01:00:00Z</time>
      </trkpt>
      <trkpt lat="60.477333" lon="22.248495">
        <ele>32.438</ele>
        <time>1970-01-01T01:00:00Z</time>
      </trkpt>
      <trkpt lat="60.477344" lon="22.248773">
        <ele>31.9174</ele>
        <time>1970-01-01T01:00:00Z</time>
      </trkpt>
      <trkpt lat="60.477359" lon="22.249179">
        <ele>31.3223</ele>
        <time>1970-01-01T01:00:00Z</time>
      </trkpt>
      <trkpt lat="60.477363" lon="22.249515">
        <ele>30.6529</ele>
        <time>1970-01-01T01:00:00Z</time>
      </trkpt>
      <trkpt lat="60.477355" lon="22.249834">
        <ele>29.9091</ele>
        <time>1970-01-01T01:00:00Z</time>
      </trkpt>
      <trkpt lat="60.477336" lon="22.250417">
        <ele>29.0909</ele>
        <time>1970-01-01T01:00:00Z</time>
      </trkpt>
      <trkpt lat="60.477321" lon="22.250919">
        <ele>27.6777</ele>
        <time>1970-01-01T01:00:00Z</time>
      </trkpt>
      <trkpt lat="60.477294" lon="22.251199">
        <ele>27.0826</ele>
        <time>1970-01-01T01:00:00Z</time>
      </trkpt>
      <trkpt lat="60.477291" lon="22.251575">
        <ele>26.562</ele>
        <time>1970-01-01T01:00:00Z</time>
      </trkpt>
      <trkpt lat="60.477287" lon="22.251842">
        <ele>26.1157</ele>
        <time>1970-01-01T01:00:00Z</time>
      </trkpt>
      <trkpt lat="60.477275" lon="22.252241">
        <ele>25.7438</ele>
        <time>1970-01-01T01:00:00Z</time>
      </trkpt>
      <trkpt lat="60.47726" lon="22.25254">
        <ele>25.4463</ele>
        <time>1970-01-01T01:00:00Z</time>
      </trkpt>
      <trkpt lat="60.477245" lon="22.252983">
        <ele>25.2231</ele>
        <time>1970-01-01T01:00:00Z</time>
      </trkpt>
      <trkpt lat="60.477241" lon="22.253301">
        <ele>25.0744</ele>
        <time>1970-01-01T01:00:00Z</time>
      </trkpt>
      <trkpt lat="60.477203" lon="22.253698">
        <ele>25</ele>
        <time>1970-01-01T01:00:00Z</time>
      </trkpt>
      <trkpt lat="60.477169" lon="22.254016">
        <ele>25</ele>
        <time>1970-01-01T01:00:00Z</time>
      </trkpt>
      <trkpt lat="60.47713" lon="22.254343">
        <ele>25</ele>
        <time>1970-01-01T01:00:00Z</time>
      </trkpt>
      <trkpt lat="60.477085" lon="22.254743">
        <ele>25</ele>
        <time>1970-01-01T01:00:00Z</time>
      </trkpt>
      <trkpt lat="60.477066" lon="22.255041">
        <ele>25</ele>
        <time>1970-01-01T01:00:00Z</time>
      </trkpt>
      <trkpt lat="60.477043" lon="22.255409">
        <ele>24.9917</ele>
        <time>1970-01-01T01:00:00Z</time>
      </trkpt>
      <trkpt lat="60.477035" lon="22.255746">
        <ele>24.9752</ele>
        <time>1970-01-01T01:00:00Z</time>
      </trkpt>
      <trkpt lat="60.477058" lon="22.256084">
        <ele>24.9504</ele>
        <time>1970-01-01T01:00:00Z</time>
      </trkpt>
      <trkpt lat="60.4771" lon="22.25642">
        <ele>24.9174</ele>
        <time>1970-01-01T01:00:00Z</time>
      </trkpt>
      <trkpt lat="60.477069" lon="22.256677">
        <ele>24.876</ele>
        <time>1970-01-01T01:00:00Z</time>
      </trkpt>
      <trkpt lat="60.476898" lon="22.256935">
        <ele>24.8264</ele>
        <time>1970-01-01T01:00:00Z</time>
      </trkpt>
      <trkpt lat="60.476818" lon="22.257204">
        <ele>24.7686</ele>
        <time>1970-01-01T01:00:00Z</time>
      </trkpt>
      <trkpt lat="60.476787" lon="22.257492">
        <ele>24.7025</ele>
        <time>1970-01-01T01:00:00Z</time>
      </trkpt>
      <trkpt lat="60.476734" lon="22.257867">
        <ele>24.6281</ele>
        <time>1970-01-01T01:00:00Z</time>
      </trkpt>
      <trkpt lat="60.476703" lon="22.258193">
        <ele>24.5455</ele>
        <time>1970-01-01T01:00:00Z</time>
      </trkpt>
      <trkpt lat="60.476684" lon="22.258617">
        <ele>24.4545</ele>
        <time>1970-01-01T01:00:00Z</time>
      </trkpt>
      <trkpt lat="60.476684" lon="22.258958">
        <ele>24.3719</ele>
        <time>1970-01-01T01:00:00Z</time>
      </trkpt>
      <trkpt lat="60.476657" lon="22.259243">
        <ele>24.2975</ele>
        <time>1970-01-01T01:00:00Z</time>
      </trkpt>
      <trkpt lat="60.476623" lon="22.259593">
        <ele>24.2314</ele>
        <time>1970-01-01T01:00:00Z</time>
      </trkpt>
      <trkpt lat="60.476612" lon="22.25987">
        <ele>24.1736</ele>
        <time>1970-01-01T01:00:00Z</time>
      </trkpt>
      <trkpt lat="60.476646" lon="22.260177">
        <ele>24.124</ele>
        <time>1970-01-01T01:00:00Z</time>
      </trkpt>
      <trkpt lat="60.476696" lon="22.260313">
        <ele>24.0826</ele>
        <time>1970-01-01T01:00:00Z</time>
      </trkpt>
      <trkpt lat="60.476753" lon="22.26036">
        <ele>24.0496</ele>
        <time>1970-01-01T01:00:00Z</time>
      </trkpt>
      <trkpt lat="60.476902" lon="22.26049">
        <ele>24.0248</ele>
        <time>1970-01-01T01:00:00Z</time>
      </trkpt>
      <trkpt lat="60.477058" lon="22.260597">
        <ele>24.0083</ele>
        <time>1970-01-01T01:00:00Z</time>
      </trkpt>
      <trkpt lat="60.477233" lon="22.260766">
        <ele>24</ele>
        <time>1970-01-01T01:00:00Z</time>
      </trkpt>
      <trkpt lat="60.477401" lon="22.260892">
        <ele>24</ele>
        <time>1970-01-01T01:00:00Z</time>
      </trkpt>
      <trkpt lat="60.47755" lon="22.261077">
        <ele>24</ele>
        <time>1970-01-01T01:00:00Z</time>
      </trkpt>
      <trkpt lat="60.477645" lon="22.261257">
        <ele>24</ele>
        <time>1970-01-01T01:00:00Z</time>
      </trkpt>
      <trkpt lat="60.477794" lon="22.26139">
        <ele>24</ele>
        <time>1970-01-01T01:00:00Z</time>
      </trkpt>
      <trkpt lat="60.477966" lon="22.261577">
        <ele>24</ele>
        <time>1970-01-01T01:00:00Z</time>
      </trkpt>
      <trkpt lat="60.478115" lon="22.261657">
        <ele>24</ele>
        <time>1970-01-01T01:00:00Z</time>
      </trkpt>
      <trkpt lat="60.478282" lon="22.261795">
        <ele>24</ele>
        <time>1970-01-01T01:00:00Z</time>
      </trkpt>
      <trkpt lat="60.47845" lon="22.261943">
        <ele>24</ele>
        <time>1970-01-01T01:00:00Z</time>
      </trkpt>
      <trkpt lat="60.478599" lon="22.26213">
        <ele>24</ele>
        <time>1970-01-01T01:00:00Z</time>
      </trkpt>
      <trkpt lat="60.478843" lon="22.262386">
        <ele>24</ele>
        <time>1970-01-01T01:00:00Z</time>
      </trkpt>
      <trkpt lat="60.478904" lon="22.262622">
        <ele>24</ele>
        <time>1970-01-01T01:00:00Z</time>
      </trkpt>
      <trkpt lat="60.478847" lon="22.262908">
        <ele>24</ele>
        <time>1970-01-01T01:00:00Z</time>
      </trkpt>
      <trkpt lat="60.478767" lon="22.263263">
        <ele>24</ele>
        <time>1970-01-01T01:00:00Z</time>
      </trkpt>
      <trkpt lat="60.478733" lon="22.263601">
        <ele>24</ele>
        <time>1970-01-01T01:00:00Z</time>
      </trkpt>
      <trkpt lat="60.47871" lon="22.263843">
        <ele>24</ele>
        <time>1970-01-01T01:00:00Z</time>
      </trkpt>
      <trkpt lat="60.478679" lon="22.264173">
        <ele>24</ele>
        <time>1970-01-01T01:00:00Z</time>
      </trkpt>
      <trkpt lat="60.478652" lon="22.264331">
        <ele>24.0909</ele>
        <time>1970-01-01T01:00:00Z</time>
      </trkpt>
      <trkpt lat="60.478618" lon="22.264476">
        <ele>24.1909</ele>
        <time>1970-01-01T01:00:00Z</time>
      </trkpt>
      <trkpt lat="60.478549" lon="22.264745">
        <ele>24.302</ele>
        <time>1970-01-01T01:00:00Z</time>
      </trkpt>
      <trkpt lat="60.478519" lon="22.264863">
        <ele>24.427</ele>
        <time>1970-01-01T01:00:00Z</time>
      </trkpt>
      <trkpt lat="60.478504" lon="22.264934">
        <ele>24.5699</ele>
        <time>1970-01-01T01:00:00Z</time>
      </trkpt>
      <trkpt lat="60.478408" lon="22.265298">
        <ele>24.7365</ele>
        <time>1970-01-01T01:00:00Z</time>
      </trkpt>
      <trkpt lat="60.478328" lon="22.265577">
        <ele>24.8102</ele>
        <time>1970-01-01T01:00:00Z</time>
      </trkpt>
      <trkpt lat="60.478263" lon="22.265926">
        <ele>24.9002</ele>
        <time>1970-01-01T01:00:00Z</time>
      </trkpt>
      <trkpt lat="60.478206" lon="22.266208">
        <ele>25.0127</ele>
        <time>1970-01-01T01:00:00Z</time>
      </trkpt>
      <trkpt lat="60.478118" lon="22.266546">
        <ele>25.1574</ele>
        <time>1970-01-01T01:00:00Z</time>
      </trkpt>
      <trkpt lat="60.47805" lon="22.26687">
        <ele>25.3503</ele>
        <time>1970-01-01T01:00:00Z</time>
      </trkpt>
    </trkseg>
  </trk>
</gpx>